Torna al catalogo

COSMOS 2491 DEB

AttivoPO
NORAD 57552·DEBRIS·🇷🇺 Russia

Lanciato Dec 25, 2013 da Plesetsk Cosmodrome

Loading…

Prossimi Passaggi (prossime 24 ore)

TLE

ObsoletoSource: Space-Track

Epoca: Jul 4, 2026, 00:31 UTC

1 57552U 13076AP  26185.02174603  .00006711  00000-0  28753-1 0  9997
2 57552  82.4164  86.8139 0208316  56.3615 305.7166 12.75244132146631

Traccia COSMOS 2491 DEB in tempo reale con AllMySat

Download on the App Store